Flag for U.S.A. Weather past 2 weeks in Fall River, Massachusetts, U.S.A.

Now
49 °F

Clear.


Feels Like: 46 °F
Forecast: 46 / 76 °F
Wind: 7 mph from Southwest

Location: New Bedford Regional Airport

Current Time: May 3, 2015 at 10:16:41 PM

Latest Report: May 3, 2015 at 8:53 PM


Visibility: 10 mi

Pressure: 30.16 "Hg

Humidity: 80%

Dew point: 43 °F

Location of Fall RiverLocation

Historic Weather in Fall River — Graph

°F

Fall River temperature yesterday

Maximum temperature yesterday: 59 °F (at 2:53 PM)
Minimum temperature yesterday: 39 °F (at 5:53 AM)
Average temperature yesterday: 47 °F

Past Weeks' High & Low Weather Summary

 TemperatureHumidityPressure
High71 °F (Apr 21, 1:53 PM)100% (Apr 20, 11:53 PM)30.26 "Hg (Apr 20, 11:53 PM)
Low33 °F (Apr 26, 2:53 AM)30% (Apr 25, 2:53 PM)29.51 "Hg (Apr 27, 3:53 PM)
Average49 °F67%29.78 "Hg
* Reported Apr 19 9:53 PM — May 3 8:53 PM, Fall River, Weather by CustomWeather, © 2015

Note: Actual official high and low records may vary slightly from our data, if they occured in-between our weather recording intervals... More about our weather records

Advertising

Fall River weather history for previous 24 hours

 ConditionsComfort  
Time TempWeatherWind HumidityBarometerVisibility
8:53 PM
Sun, May 3
49 °FClear.7 mph80%30.16 "Hg10 mi
7:53 PM50 °FPartly sunny.9 mph77%30.15 "Hg10 mi
6:53 PM52 °FSunny.12 mph59%30.13 "Hg10 mi
5:53 PM55 °FSunny.17 mph47%30.12 "Hg10 mi
4:53 PM55 °FSunny.13 mph53%30.11 "Hg10 mi
3:53 PM57 °FSunny.17 mph51%30.10 "Hg10 mi
2:53 PM60 °FSunny.10 mph49%30.10 "Hg10 mi
1:53 PM61 °FSunny.14 mph50%30.09 "Hg10 mi
12:53 PM61 °FSunny.13 mph48%30.09 "Hg10 mi
11:53 AM61 °FScattered clouds.12 mph50%30.08 "Hg10 mi
10:53 AM61 °FOvercast.8 mph52%30.08 "Hg10 mi
9:53 AM59 °FOvercast.10 mph48%30.07 "Hg10 mi
8:53 AM53 °FOvercast.6 mph56%30.07 "Hg10 mi
7:53 AM50 °FOvercast.5 mph66%30.07 "Hg10 mi
6:53 AM47 °FOvercast.6 mph80%30.05 "Hg10 mi
5:53 AM41 °FOvercast.3 mph93%30.04 "Hg10 mi
4:53 AM41 °FPassing clouds.No wind89%30.03 "Hg10 mi
3:53 AM40 °FPassing clouds.No wind93%30.02 "Hg10 mi
2:53 AM41 °FOvercast.3 mph89%30.02 "Hg10 mi
1:53 AM39 °FPassing clouds.3 mph93%30.02 "Hg10 mi
12:53 AM40 °FClear.5 mph93%30.03 "Hg10 mi
11:53 PM
Sat, May 2
41 °FClear.No wind93%30.02 "Hg10 mi
10:53 PM43 °FClear.No wind93%30.02 "Hg10 mi
Weather by CustomWeather, © 2015

See weather overviewHow to use our weather pages